EDT,Max TemperatureF,Mean TemperatureF,Min TemperatureF,Max Dew PointF,MeanDew PointF,Min DewpointF,Max Humidity, Mean Humidity, Min Humidity, Max Sea Level PressureIn, Mean Sea Level PressureIn, Min Sea Level PressureIn, Max VisibilityMiles, Mean VisibilityMiles, Min VisibilityMiles, Max Wind SpeedMPH, Mean Wind SpeedMPH, Max Gust SpeedMPH,PrecipitationIn, CloudCover, Events, WindDirDegrees
2013-6-1,81,69,57,70,65,61,100,76,51,30.20,30.14,30.07,10,10,10,14,4,22,0.00,1,Thunderstorm,206
2013-6-2,74,68,62,72,68,64,100,88,76,30.10,30.03,29.98,10,10,1,7,3,,0.23,3,Rain-Thunderstorm,225
2013-6-3,75,66,56,68,64,61,100,82,64,30.09,29.99,29.95,10,9,0,9,4,18,0.02,4,Fog-Rain,297
2013-6-4,76,64,51,64,61,54,100,79,58,30.19,30.13,30.07,10,8,1,9,3,,0.00,3,,125
2013-6-5,72,64,56,66,64,61,100,90,79,30.21,30.16,30.11,10,8,2,14,5,20,0.00,7,,124
2013-6-6,65,62,59,66,64,63,100,94,87,30.11,29.98,29.90,10,7,0,9,5,,2.70,8,Fog-Rain,93
2013-6-7,71,65,58,72,66,61,100,92,84,29.93,29.82,29.74,10,8,2,12,4,17,0.16,7,Rain,350
2013-6-8,78,67,56,68,63,59,100,79,58,30.19,30.04,29.92,10,8,2,7,2,,0.26,3,Rain,279
2013-6-9,82,71,60,70,66,61,100,74,48,30.25,30.19,30.13,10,9,3,8,2,18,0.11,5,Rain,169
2013-6-10,76,68,60,72,68,63,100,87,74,30.16,30.03,29.94,10,8,2,10,4,16,1.00,6,Rain-Thunderstorm,173
2013-6-11,77,69,60,66,65,63,100,82,64,30.07,30.02,29.97,10,10,3,12,5,21,0.33,5,Rain,286
2013-6-12,84,72,60,73,70,63,100,81,61,30.07,30.05,30.02,10,10,5,10,4,20,0.00,1,Thunderstorm,275
2013-6-13,82,71,60,73,69,57,100,81,61,,,,10,10,7,17,9,27,0.16,3,Rain-Thunderstorm,267
2013-6-14,73,64,54,59,57,54,93,75,57,30.13,30.05,30.02,10,10,10,16,6,18,0.00,4,,310
2013-6-15,78,64,50,63,58,54,100,73,45,30.22,30.16,30.12,10,9,0,15,2,,0.00,1,Fog,284
2013-6-16,79,67,55,70,65,57,100,81,62,30.17,30.13,30.09,10,9,5,7,3,17,0.23,3,Rain,265
2013-6-17,82,72,62,72,68,64,100,80,59,30.13,30.08,30.01,10,8,2,8,2,18,0.04,3,Rain-Thunderstorm,252
2013-6-18,72,68,63,72,67,63,100,92,84,30.06,29.96,29.92,10,8,2,12,3,,0.38,5,Rain,327
2013-6-19,77,66,55,70,64,57,100,84,67,30.23,30.11,30.01,10,7,0,9,1,23,0.89,4,Fog-Rain-Thunderstorm,119
2013-6-20,77,68,59,70,66,63,100,85,69,30.34,30.29,30.23,10,8,1,10,4,,0.00,5,,113
2013-6-21,81,69,57,68,65,61,100,79,58,30.37,30.33,30.29,10,8,0,9,3,,0.00,3,Fog,106
2013-6-22,81,67,53,70,63,55,100,78,55,30.34,30.30,30.23,10,9,3,8,2,,0.00,1,,98
2013-6-23,84,73,62,72,68,64,100,74,48,30.31,30.26,30.21,10,8,0,8,2,21,T,3,Fog-Thunderstorm,238
2013-6-24,84,73,61,72,70,64,100,81,61,30.30,30.25,30.18,10,9,2,6,2,,0.00,1,Thunderstorm,254
2013-6-25,82,72,62,73,70,64,100,83,65,30.22,30.17,30.10,10,8,0,7,2,,0.00,2,Fog-Thunderstorm,269
2013-6-26,83,73,62,73,70,64,100,82,63,30.12,30.06,30.00,10,7,1,8,2,37,0.51,1,Rain-Thunderstorm,266
2013-6-27,77,70,63,73,70,66,100,87,74,30.01,29.89,29.83,10,7,0,9,4,16,0.23,5,Fog-Rain,274
2013-6-28,83,74,65,73,69,64,100,78,55,29.85,29.76,29.66,10,9,5,12,5,22,0.00,3,,259
2013-6-29,80,70,59,70,66,63,100,74,48,29.82,29.75,29.70,10,10,7,7,2,,0.01,2,Rain-Thunderstorm,237
2013-6-30,84,73,61,72,68,64,100,78,55,29.94,29.87,29.80,10,7,0,8,3,10,0.68,5,Fog-Rain-Thunderstorm,118